RYR7VV EICK-LERS

Flight info

Callsign RYR7VV
Flight time 1h 58m
Altitude 37000
Route ORTOM1P ORTOM DCT TUVEN DCT TULTA/N0445F370 DCT TURDO DCT INCEF DCT NENEM P152 PPN DCT TURPU DCT GOSVI DCT RONKO M601 POSSY
Aircraft B38M/M-SDE1FGHILORVWXY/HB1

Departure

Time 2026-04-28 14:02
Airport Cork International Airport (EICK)

Arrival

Time 2026-04-28 16:01
Airport Reus Airport (LERS)
Time Latitude Longitude Altitude Speed Heading
2026-04-28 13:46 51.84935 -8.49122 507 ft 0 kts 70°
2026-04-28 13:57 51.84934 -8.49125 507 ft 2 kts 69°
2026-04-28 13:57 51.84924 -8.49164 507 ft 4 kts 64°
2026-04-28 13:57 51.84911 -8.49202 507 ft 4 kts 56°
2026-04-28 13:58 51.84894 -8.49234 507 ft 4 kts 33°
2026-04-28 13:58 51.84874 -8.49243 507 ft 2 kts 340°
2026-04-28 13:58 51.84873 -8.49242 507 ft 1 kts 340°
2026-04-28 14:00 51.84886 -8.49250 507 ft 7 kts 340°
2026-04-28 14:00 51.84977 -8.49292 507 ft 17 kts 340°
2026-04-28 14:00 51.85083 -8.49354 507 ft 16 kts 339°
2026-04-28 14:01 51.85131 -8.49472 507 ft 14 kts 237°
2026-04-28 14:01 51.85089 -8.49513 507 ft 6 kts 207°
2026-04-28 14:01 51.85045 -8.49550 507 ft 8 kts 207°
2026-04-28 14:01 51.84992 -8.49588 508 ft 9 kts 197°
2026-04-28 14:02 51.84897 -8.49564 506 ft 27 kts 160°
2026-04-28 14:02 51.84492 -8.49326 505 ft 102 kts 160°
2026-04-28 14:02 51.83604 -8.48804 530 ft 166 kts 159°
2026-04-28 14:02 51.82484 -8.48132 1256 ft 175 kts 162°
2026-04-28 14:03 51.81325 -8.47494 2149 ft 179 kts 163°
2026-04-28 14:03 51.80043 -8.46951 2617 ft 201 kts 170°
2026-04-28 14:03 51.79088 -8.46675 2933 ft 218 kts 171°
2026-04-28 14:03 51.76953 -8.46038 3670 ft 246 kts 169°
2026-04-28 14:04 51.75233 -8.45503 4500 ft 259 kts 169°
2026-04-28 14:04 51.73412 -8.44923 5296 ft 269 kts 169°
2026-04-28 14:04 51.72188 -8.44530 6002 ft 270 kts 169°
2026-04-28 14:04 51.69712 -8.43728 7240 ft 276 kts 169°
2026-04-28 14:05 51.67811 -8.43109 8167 ft 280 kts 169°
2026-04-28 14:05 51.66539 -8.42695 8767 ft 283 kts 169°
2026-04-28 14:05 51.64590 -8.42060 9631 ft 287 kts 169°
2026-04-28 14:05 51.62611 -8.41416 10413 ft 295 kts 169°
2026-04-28 14:06 51.60531 -8.40739 10857 ft 313 kts 169°
2026-04-28 14:06 51.58348 -8.40029 11412 ft 326 kts 169°
2026-04-28 14:06 51.56102 -8.39299 12194 ft 330 kts 169°
2026-04-28 14:06 51.53838 -8.38564 12981 ft 334 kts 169°
2026-04-28 14:07 51.51537 -8.37818 13755 ft 338 kts 169°
2026-04-28 14:07 51.49245 -8.37076 14508 ft 342 kts 169°
2026-04-28 14:07 51.46896 -8.36316 15252 ft 346 kts 169°
2026-04-28 14:07 51.44517 -8.35547 15981 ft 350 kts 169°
2026-04-28 14:08 51.42118 -8.34772 16677 ft 354 kts 169°
2026-04-28 14:08 51.39687 -8.33988 17346 ft 358 kts 169°
2026-04-28 14:08 51.37232 -8.33197 18005 ft 361 kts 169°
2026-04-28 14:08 51.34778 -8.32408 18628 ft 365 kts 169°
2026-04-28 14:09 51.32275 -8.31603 19238 ft 368 kts 169°
2026-04-28 14:09 51.29750 -8.30792 19828 ft 372 kts 169°
2026-04-28 14:09 51.27187 -8.30006 20399 ft 375 kts 173°
2026-04-28 14:09 51.24581 -8.29556 20956 ft 378 kts 174°
2026-04-28 14:10 51.21949 -8.29092 21496 ft 381 kts 174°
2026-04-28 14:10 51.19330 -8.28612 22020 ft 384 kts 174°
2026-04-28 14:10 51.16663 -8.28115 22536 ft 387 kts 173°
2026-04-28 14:10 51.13968 -8.27610 23044 ft 390 kts 173°
2026-04-28 14:11 51.11249 -8.27100 23522 ft 393 kts 173°
2026-04-28 14:11 51.08541 -8.26592 24006 ft 396 kts 173°
2026-04-28 14:11 51.05786 -8.26075 24467 ft 399 kts 173°
2026-04-28 14:11 51.03011 -8.25556 24917 ft 402 kts 173°
2026-04-28 14:12 51.00212 -8.25060 25351 ft 405 kts 176°
2026-04-28 14:12 50.97423 -8.24793 25986 ft 410 kts 171°
2026-04-28 14:12 50.94519 -8.24494 26008 ft 424 kts 171°
2026-04-28 14:12 50.91517 -8.24170 26069 ft 437 kts 171°
2026-04-28 14:13 50.88470 -8.23840 26468 ft 439 kts 171°
2026-04-28 14:13 50.85440 -8.23512 26870 ft 442 kts 171°
2026-04-28 14:13 50.82356 -8.23179 27241 ft 445 kts 171°
2026-04-28 14:13 50.79254 -8.22844 27632 ft 448 kts 171°
2026-04-28 14:14 50.76134 -8.22507 28008 ft 451 kts 171°
2026-04-28 14:14 50.72980 -8.22167 28383 ft 453 kts 171°
2026-04-28 14:14 50.69816 -8.21827 28762 ft 456 kts 171°
2026-04-28 14:14 50.66679 -8.21490 29122 ft 459 kts 171°
2026-04-28 14:15 50.63473 -8.21146 29480 ft 461 kts 171°
2026-04-28 14:15 50.60258 -8.20801 29831 ft 464 kts 171°
2026-04-28 14:15 50.57014 -8.20454 30176 ft 466 kts 171°
2026-04-28 14:15 50.53770 -8.20107 30482 ft 469 kts 171°
2026-04-28 14:16 50.50539 -8.19763 30775 ft 471 kts 171°
2026-04-28 14:16 50.47255 -8.19413 31077 ft 473 kts 171°
2026-04-28 14:16 50.43953 -8.19061 31372 ft 475 kts 171°
2026-04-28 14:16 50.40637 -8.18709 31655 ft 477 kts 171°
2026-04-28 14:17 50.37308 -8.18356 31940 ft 479 kts 171°
2026-04-28 14:17 50.33967 -8.18002 32211 ft 481 kts 171°
2026-04-28 14:17 50.30661 -8.17652 32492 ft 483 kts 171°
2026-04-28 14:17 50.27297 -8.17296 32760 ft 485 kts 171°
2026-04-28 14:18 50.23910 -8.16939 33025 ft 488 kts 171°
2026-04-28 14:18 50.20515 -8.16581 33286 ft 490 kts 171°
2026-04-28 14:18 50.17096 -8.16222 33545 ft 492 kts 171°
2026-04-28 14:18 50.13711 -8.15866 33792 ft 494 kts 171°
2026-04-28 14:19 50.10267 -8.15505 34085 ft 495 kts 171°
2026-04-28 14:19 50.06826 -8.15144 34420 ft 495 kts 171°
2026-04-28 14:19 50.03381 -8.14784 34719 ft 494 kts 171°
2026-04-28 14:19 49.99951 -8.14427 35018 ft 494 kts 171°
2026-04-28 14:20 49.96517 -8.14068 35331 ft 493 kts 171°
2026-04-28 14:20 49.93093 -8.13711 35632 ft 492 kts 171°
2026-04-28 14:20 49.89720 -8.13361 35932 ft 491 kts 171°
2026-04-28 14:20 49.86311 -8.13006 36215 ft 490 kts 172°
2026-04-28 14:21 49.82903 -8.12653 36500 ft 489 kts 172°
2026-04-28 14:21 49.79505 -8.12301 36777 ft 489 kts 172°
2026-04-28 14:21 49.76112 -8.11950 37038 ft 488 kts 172°
2026-04-28 14:21 49.72726 -8.11600 37266 ft 488 kts 172°
2026-04-28 14:22 49.65948 -8.10901 37291 ft 486 kts 172°
2026-04-28 14:22 49.59229 -8.10210 37287 ft 486 kts 172°
2026-04-28 14:23 49.52477 -8.09518 37282 ft 486 kts 172°
2026-04-28 14:23 49.45771 -8.08833 37277 ft 486 kts 172°
2026-04-28 14:24 49.39021 -8.08145 37272 ft 486 kts 172°
2026-04-28 14:24 49.32244 -8.07456 37269 ft 486 kts 172°
2026-04-28 14:25 49.25492 -8.06771 37268 ft 486 kts 172°
2026-04-28 14:25 49.18785 -8.06093 37263 ft 486 kts 173°
2026-04-28 14:26 49.12030 -8.05412 37260 ft 485 kts 173°
2026-04-28 14:26 49.05307 -8.04736 37253 ft 485 kts 173°
2026-04-28 14:27 48.98548 -8.04058 37252 ft 485 kts 173°
2026-04-28 14:27 48.91844 -8.03388 37247 ft 485 kts 173°
2026-04-28 14:28 48.85090 -8.02714 37250 ft 484 kts 173°
2026-04-28 14:28 48.78366 -8.02045 37241 ft 484 kts 173°
2026-04-28 14:29 48.71670 -8.01380 37237 ft 484 kts 173°
2026-04-28 14:29 48.64952 -8.00715 37233 ft 483 kts 173°
2026-04-28 14:30 48.58303 -7.99516 37209 ft 475 kts 157°
2026-04-28 14:30 48.55376 -7.97495 37236 ft 466 kts 145°
2026-04-28 14:30 48.52559 -7.95021 37219 ft 469 kts 145°
2026-04-28 14:31 48.46956 -7.89935 37224 ft 469 kts 144°
2026-04-28 14:31 48.41394 -7.84775 37222 ft 469 kts 144°
2026-04-28 14:32 48.35857 -7.79629 37219 ft 469 kts 144°
2026-04-28 14:32 48.30286 -7.74462 37216 ft 470 kts 144°
2026-04-28 14:33 48.24750 -7.69342 37213 ft 470 kts 144°
2026-04-28 14:33 48.19164 -7.64188 37209 ft 470 kts 145°
2026-04-28 14:34 48.10801 -7.56498 37205 ft 471 kts 145°
2026-04-28 14:35 48.05196 -7.51360 37200 ft 471 kts 145°
2026-04-28 14:35 47.99624 -7.46266 37196 ft 472 kts 146°
2026-04-28 14:36 47.94009 -7.41146 37192 ft 472 kts 146°
2026-04-28 14:36 47.88383 -7.36027 37189 ft 473 kts 146°
2026-04-28 14:37 47.82789 -7.30952 37185 ft 473 kts 146°
2026-04-28 14:37 47.77376 -7.26053 37185 ft 473 kts 146°
2026-04-28 14:38 47.71728 -7.20955 37176 ft 474 kts 147°
2026-04-28 14:38 47.66109 -7.15896 37174 ft 474 kts 147°
2026-04-28 14:39 47.60447 -7.10811 37165 ft 475 kts 147°
2026-04-28 14:39 47.54821 -7.05770 37165 ft 475 kts 147°
2026-04-28 14:40 47.49161 -7.00711 37160 ft 475 kts 147°
2026-04-28 14:40 47.43640 -6.95451 37153 ft 472 kts 140°
2026-04-28 14:41 47.38358 -6.89557 37152 ft 474 kts 142°
2026-04-28 14:41 47.33066 -6.83817 37151 ft 474 kts 142°
2026-04-28 14:42 47.27725 -6.78052 37144 ft 474 kts 142°
2026-04-28 14:42 47.22411 -6.72333 37142 ft 475 kts 143°
2026-04-28 14:43 47.17099 -6.66630 37139 ft 475 kts 143°
2026-04-28 14:43 47.11751 -6.60903 37140 ft 475 kts 143°
2026-04-28 14:44 47.06387 -6.55173 37130 ft 475 kts 143°
2026-04-28 14:44 47.01058 -6.49495 37131 ft 476 kts 143°
2026-04-28 14:45 46.95887 -6.43999 37127 ft 476 kts 143°
2026-04-28 14:45 46.90531 -6.38321 37124 ft 476 kts 143°
2026-04-28 14:46 46.85162 -6.32643 37116 ft 476 kts 144°
2026-04-28 14:46 46.79782 -6.26969 37116 ft 476 kts 144°
2026-04-28 14:47 46.74437 -6.21345 37112 ft 476 kts 144°
2026-04-28 14:47 46.69048 -6.15688 37106 ft 475 kts 144°
2026-04-28 14:48 46.63705 -6.10094 37102 ft 475 kts 144°
2026-04-28 14:48 46.58312 -6.04463 37097 ft 474 kts 144°
2026-04-28 14:49 46.52975 -5.98903 37095 ft 474 kts 145°
2026-04-28 14:49 46.47608 -5.93326 37091 ft 473 kts 145°
2026-04-28 14:50 46.42255 -5.87778 37090 ft 472 kts 146°
2026-04-28 14:50 46.37835 -5.83207 37083 ft 471 kts 146°
2026-04-28 14:51 46.32490 -5.77690 37083 ft 471 kts 146°
2026-04-28 14:51 46.26274 -5.71293 37081 ft 471 kts 147°
2026-04-28 14:52 46.21783 -5.66682 37081 ft 472 kts 147°
2026-04-28 14:52 46.16462 -5.61231 37071 ft 472 kts 147°
2026-04-28 14:53 46.11095 -5.55746 37070 ft 472 kts 147°
2026-04-28 14:53 46.05758 -5.50305 37071 ft 472 kts 147°
2026-04-28 14:54 46.00390 -5.44846 37068 ft 472 kts 147°
2026-04-28 14:54 45.95016 -5.39394 37066 ft 472 kts 147°
2026-04-28 14:55 45.89658 -5.33971 37059 ft 472 kts 148°
2026-04-28 14:55 45.84291 -5.28552 37057 ft 472 kts 148°
2026-04-28 14:56 45.78911 -5.23134 37055 ft 471 kts 148°
2026-04-28 14:56 45.73569 -5.17766 37052 ft 470 kts 148°
2026-04-28 14:57 45.68204 -5.12387 37048 ft 470 kts 148°
2026-04-28 14:57 45.62846 -5.07027 37046 ft 469 kts 148°
2026-04-28 14:58 45.57529 -5.01719 37043 ft 468 kts 148°
2026-04-28 14:58 45.52187 -4.96365 37040 ft 469 kts 145°
2026-04-28 14:59 45.47291 -4.90245 37039 ft 471 kts 141°
2026-04-28 14:59 45.42409 -4.84034 37036 ft 470 kts 141°
2026-04-28 15:00 45.37524 -4.77826 37027 ft 470 kts 141°
2026-04-28 15:00 45.32637 -4.71629 37062 ft 470 kts 142°
2026-04-28 15:01 45.27781 -4.65488 37029 ft 469 kts 142°
2026-04-28 15:01 45.22892 -4.59317 37026 ft 468 kts 142°
2026-04-28 15:02 45.18041 -4.53212 37022 ft 468 kts 142°
2026-04-28 15:02 45.13175 -4.47100 37018 ft 467 kts 142°
2026-04-28 15:03 45.08297 -4.40988 37019 ft 467 kts 142°
2026-04-28 15:03 45.03452 -4.34932 37014 ft 466 kts 142°
2026-04-28 15:04 44.98588 -4.28866 37013 ft 465 kts 142°
2026-04-28 15:04 44.93756 -4.22855 37009 ft 465 kts 142°
2026-04-28 15:05 44.88897 -4.16824 37007 ft 464 kts 142°
2026-04-28 15:05 44.84041 -4.10812 37001 ft 463 kts 142°
2026-04-28 15:06 44.79189 -4.04817 37004 ft 463 kts 143°
2026-04-28 15:06 44.74375 -3.98885 37000 ft 462 kts 143°
2026-04-28 15:07 44.69533 -3.92930 36986 ft 461 kts 143°
2026-04-28 15:07 44.64695 -3.86994 36984 ft 461 kts 143°
2026-04-28 15:08 44.59885 -3.81108 36993 ft 461 kts 143°
2026-04-28 15:08 44.55050 -3.75202 36990 ft 461 kts 143°
2026-04-28 15:09 44.50226 -3.69326 36987 ft 461 kts 143°
2026-04-28 15:09 44.45377 -3.63430 36984 ft 461 kts 143°
2026-04-28 15:10 44.40549 -3.57574 36981 ft 460 kts 143°
2026-04-28 15:10 44.35688 -3.51692 36978 ft 460 kts 143°
2026-04-28 15:11 44.30867 -3.45872 36977 ft 460 kts 143°
2026-04-28 15:11 44.26019 -3.40031 36975 ft 459 kts 143°
2026-04-28 15:12 44.21170 -3.34202 36972 ft 459 kts 143°
2026-04-28 15:12 44.16362 -3.28435 36972 ft 458 kts 143°
2026-04-28 15:13 44.11530 -3.22650 36972 ft 457 kts 143°
2026-04-28 15:13 44.06703 -3.16884 36966 ft 456 kts 144°
2026-04-28 15:14 44.01837 -3.11356 36963 ft 454 kts 145°
2026-04-28 15:14 43.96928 -3.05817 36963 ft 453 kts 145°
2026-04-28 15:15 43.92031 -3.00296 36964 ft 452 kts 145°
2026-04-28 15:15 43.87172 -2.94828 36961 ft 451 kts 146°
2026-04-28 15:16 43.82289 -2.89346 36957 ft 451 kts 146°
2026-04-28 15:16 43.77434 -2.83907 36959 ft 450 kts 146°
2026-04-28 15:17 43.72564 -2.78463 36958 ft 450 kts 146°
2026-04-28 15:17 43.67715 -2.73056 36958 ft 449 kts 146°
2026-04-28 15:18 43.62839 -2.67638 36956 ft 449 kts 146°
2026-04-28 15:18 43.58000 -2.62270 36954 ft 448 kts 146°
2026-04-28 15:19 43.53131 -2.56881 36957 ft 448 kts 146°
2026-04-28 15:19 43.48269 -2.51512 36955 ft 447 kts 146°
2026-04-28 15:20 43.43430 -2.46178 36956 ft 447 kts 146°
2026-04-28 15:20 43.38567 -2.40831 36954 ft 447 kts 146°
2026-04-28 15:21 43.33697 -2.35486 36958 ft 447 kts 146°
2026-04-28 15:21 43.29037 -2.30383 36958 ft 447 kts 146°
2026-04-28 15:22 43.24172 -2.25066 36974 ft 446 kts 146°
2026-04-28 15:22 43.19307 -2.19759 36946 ft 446 kts 146°
2026-04-28 15:23 43.14465 -2.14490 36950 ft 447 kts 146°
2026-04-28 15:23 43.09597 -2.09203 36942 ft 447 kts 146°
2026-04-28 15:24 43.04712 -2.03911 36935 ft 446 kts 146°
2026-04-28 15:24 42.99860 -1.98667 36936 ft 446 kts 146°
2026-04-28 15:25 42.95004 -1.93429 36912 ft 445 kts 146°
2026-04-28 15:25 42.90134 -1.88184 36915 ft 445 kts 146°
2026-04-28 15:26 42.85263 -1.82943 36909 ft 445 kts 146°
2026-04-28 15:26 42.80426 -1.77751 36922 ft 444 kts 146°
2026-04-28 15:27 42.75566 -1.72530 36913 ft 445 kts 143°
2026-04-28 15:27 42.73444 -1.69425 36890 ft 451 kts 127°
2026-04-28 15:27 42.71942 -1.65720 36927 ft 455 kts 120°
2026-04-28 15:28 42.69111 -1.57956 36895 ft 457 kts 119°
2026-04-28 15:28 42.66359 -1.50210 36910 ft 458 kts 119°
2026-04-28 15:29 42.63598 -1.42399 36906 ft 458 kts 119°
2026-04-28 15:29 42.60850 -1.34636 36910 ft 458 kts 119°
2026-04-28 15:30 42.58078 -1.26827 36901 ft 458 kts 119°
2026-04-28 15:30 42.55301 -1.19023 36901 ft 458 kts 119°
2026-04-28 15:31 42.52537 -1.11280 36909 ft 458 kts 119°
2026-04-28 15:31 42.49749 -1.03488 36904 ft 458 kts 119°
2026-04-28 15:32 42.46972 -0.95742 36906 ft 458 kts 119°
2026-04-28 15:32 42.44176 -0.87965 36908 ft 458 kts 119°
2026-04-28 15:33 42.41376 -0.80206 36905 ft 457 kts 119°
2026-04-28 15:33 42.38599 -0.72532 36591 ft 452 kts 120°
2026-04-28 15:33 42.37216 -0.68717 35985 ft 451 kts 119°
2026-04-28 15:34 42.35834 -0.64909 35469 ft 448 kts 119°
2026-04-28 15:34 42.34479 -0.61183 34982 ft 444 kts 119°
2026-04-28 15:34 42.33120 -0.57449 34515 ft 441 kts 119°
2026-04-28 15:34 42.31763 -0.53723 33939 ft 441 kts 119°
2026-04-28 15:35 42.30407 -0.50007 33364 ft 440 kts 119°
2026-04-28 15:35 42.27717 -0.42649 32410 ft 433 kts 119°
2026-04-28 15:35 42.26391 -0.39025 31931 ft 430 kts 118°
2026-04-28 15:36 42.25083 -0.35462 31465 ft 426 kts 118°
2026-04-28 15:36 42.23772 -0.31891 30965 ft 423 kts 118°
2026-04-28 15:36 42.22454 -0.28306 30342 ft 426 kts 118°
2026-04-28 15:36 42.21140 -0.24736 29971 ft 426 kts 118°
2026-04-28 15:37 42.19803 -0.21112 29406 ft 434 kts 118°
2026-04-28 15:37 42.18560 -0.17744 29019 ft 437 kts 118°
2026-04-28 15:37 42.17200 -0.14062 28580 ft 438 kts 118°
2026-04-28 15:37 42.16295 -0.11619 28264 ft 438 kts 118°
2026-04-28 15:38 42.14500 -0.06771 27586 ft 434 kts 119°
2026-04-28 15:38 42.13156 -0.03148 27151 ft 431 kts 119°
2026-04-28 15:38 42.12267 -0.00755 26858 ft 430 kts 119°
2026-04-28 15:38 42.10928 0.02848 26420 ft 427 kts 119°
2026-04-28 15:39 42.09172 0.07566 25843 ft 424 kts 119°
2026-04-28 15:39 42.07852 0.11105 25414 ft 421 kts 119°
2026-04-28 15:39 42.06537 0.14630 24989 ft 419 kts 119°
2026-04-28 15:39 42.05671 0.16946 24669 ft 417 kts 119°
2026-04-28 15:40 42.04369 0.20426 24274 ft 413 kts 119°
2026-04-28 15:40 42.03075 0.23880 23868 ft 411 kts 120°
2026-04-28 15:40 42.01799 0.27281 23443 ft 411 kts 120°
2026-04-28 15:40 42.00511 0.30712 22956 ft 408 kts 120°
2026-04-28 15:41 41.99244 0.34082 22506 ft 406 kts 120°
2026-04-28 15:41 41.97986 0.37464 22061 ft 404 kts 117°
2026-04-28 15:41 41.97081 0.41050 21605 ft 403 kts 110°
2026-04-28 15:41 41.96217 0.44617 21224 ft 399 kts 111°
2026-04-28 15:42 41.95335 0.48130 20828 ft 395 kts 111°
2026-04-28 15:42 41.94445 0.51616 20431 ft 393 kts 111°
2026-04-28 15:42 41.93551 0.55083 20012 ft 390 kts 112°
2026-04-28 15:42 41.92669 0.58479 19608 ft 389 kts 111°
2026-04-28 15:43 41.91778 0.61906 19198 ft 388 kts 112°
2026-04-28 15:43 41.90890 0.65314 18796 ft 386 kts 112°
2026-04-28 15:43 41.90002 0.68718 18407 ft 385 kts 112°
2026-04-28 15:43 41.89118 0.72101 17946 ft 383 kts 112°
2026-04-28 15:44 41.88238 0.75468 17524 ft 380 kts 112°
2026-04-28 15:44 41.87362 0.78811 17121 ft 378 kts 112°
2026-04-28 15:44 41.86492 0.82128 16730 ft 374 kts 112°
2026-04-28 15:44 41.85637 0.85382 16350 ft 371 kts 112°
2026-04-28 15:45 41.84778 0.88648 15989 ft 368 kts 111°
2026-04-28 15:45 41.83931 0.91861 15893 ft 365 kts 112°
2026-04-28 15:45 41.83083 0.95077 15894 ft 366 kts 111°
2026-04-28 15:45 41.82226 0.98321 15117 ft 379 kts 111°
2026-04-28 15:46 41.81353 1.01622 14481 ft 376 kts 111°
2026-04-28 15:46 41.80495 1.04867 14034 ft 363 kts 111°
2026-04-28 15:46 41.79667 1.07994 13647 ft 349 kts 112°
2026-04-28 15:46 41.78838 1.11003 13249 ft 340 kts 117°
2026-04-28 15:47 41.77465 1.13519 12801 ft 333 kts 142°
2026-04-28 15:47 41.75610 1.15319 12498 ft 327 kts 147°
2026-04-28 15:47 41.73764 1.17104 12125 ft 326 kts 146°
2026-04-28 15:47 41.71951 1.18851 11804 ft 324 kts 146°
2026-04-28 15:48 41.70126 1.20605 11465 ft 322 kts 146°
2026-04-28 15:48 41.68298 1.22358 11132 ft 321 kts 146°
2026-04-28 15:48 41.66481 1.24100 10764 ft 320 kts 146°
2026-04-28 15:48 41.64673 1.25829 10423 ft 318 kts 146°
2026-04-28 15:49 41.62905 1.27522 10115 ft 305 kts 146°
2026-04-28 15:49 41.61251 1.29106 9972 ft 287 kts 146°
2026-04-28 15:49 41.59653 1.30633 9699 ft 275 kts 146°
2026-04-28 15:49 41.58130 1.32089 9426 ft 264 kts 146°
2026-04-28 15:50 41.56661 1.33488 9207 ft 255 kts 146°
2026-04-28 15:50 41.55209 1.34873 8960 ft 257 kts 146°
2026-04-28 15:50 41.53760 1.36253 8713 ft 256 kts 146°
2026-04-28 15:50 41.52319 1.37629 8508 ft 253 kts 146°
2026-04-28 15:51 41.50921 1.38958 8283 ft 251 kts 146°
2026-04-28 15:51 41.49488 1.40325 8046 ft 251 kts 146°
2026-04-28 15:51 41.48072 1.41672 7795 ft 249 kts 146°
2026-04-28 15:51 41.46658 1.43016 7594 ft 249 kts 146°
2026-04-28 15:52 41.45241 1.44361 7378 ft 251 kts 146°
2026-04-28 15:52 41.43815 1.45713 7164 ft 251 kts 146°
2026-04-28 15:52 41.42405 1.47054 6928 ft 246 kts 146°
2026-04-28 15:52 41.41026 1.48365 6774 ft 247 kts 146°
2026-04-28 15:53 41.39615 1.49702 6526 ft 248 kts 146°
2026-04-28 15:53 41.38206 1.51038 6274 ft 247 kts 146°
2026-04-28 15:53 41.36819 1.52351 5992 ft 241 kts 146°
2026-04-28 15:53 41.35352 1.53355 5743 ft 240 kts 167°
2026-04-28 15:54 41.33710 1.53233 5477 ft 234 kts 198°
2026-04-28 15:54 41.32355 1.52082 5311 ft 232 kts 221°
2026-04-28 15:54 41.31201 1.50614 5148 ft 233 kts 221°
2026-04-28 15:54 41.30042 1.49121 4901 ft 231 kts 221°
2026-04-28 15:55 41.28895 1.47629 4709 ft 227 kts 221°
2026-04-28 15:55 41.27778 1.46170 4470 ft 222 kts 221°
2026-04-28 15:55 41.26691 1.44742 4234 ft 215 kts 222°
2026-04-28 15:55 41.25661 1.43389 4054 ft 205 kts 221°
2026-04-28 15:56 41.24651 1.42058 3906 ft 202 kts 222°
2026-04-28 15:56 41.23656 1.40751 3705 ft 200 kts 222°
2026-04-28 15:56 41.22670 1.39450 3539 ft 199 kts 222°
2026-04-28 15:56 41.21703 1.38186 3298 ft 195 kts 220°
2026-04-28 15:57 41.20793 1.36878 3181 ft 192 kts 231°
2026-04-28 15:57 41.20125 1.35317 2938 ft 197 kts 243°
2026-04-28 15:57 41.19632 1.33638 2664 ft 188 kts 247°
2026-04-28 15:57 41.19197 1.32093 2408 ft 172 kts 245°
2026-04-28 15:58 41.18786 1.30667 2218 ft 159 kts 246°
2026-04-28 15:58 41.18405 1.29322 2025 ft 154 kts 245°
2026-04-28 15:58 41.18019 1.27999 1821 ft 153 kts 245°
2026-04-28 15:58 41.17636 1.26704 1629 ft 152 kts 245°
2026-04-28 15:59 41.17254 1.25393 1384 ft 153 kts 247°
2026-04-28 15:59 41.16874 1.24072 1162 ft 152 kts 246°
2026-04-28 15:59 41.16507 1.22752 990 ft 152 kts 245°
2026-04-28 15:59 41.16126 1.21469 771 ft 148 kts 248°
2026-04-28 16:00 41.15771 1.20231 566 ft 140 kts 243°
2026-04-28 16:00 41.15401 1.18981 385 ft 147 kts 249°
2026-04-28 16:00 41.15038 1.17736 249 ft 136 kts 248°
2026-04-28 16:00 41.14753 1.16767 243 ft 81 kts 249°
2026-04-28 16:01 41.14611 1.16280 240 ft 41 kts 249°
2026-04-28 16:01 41.14541 1.16043 240 ft 23 kts 248°
2026-04-28 16:01 41.14543 1.15901 240 ft 12 kts 327°
2026-04-28 16:01 41.14595 1.15872 241 ft 2 kts 338°
2026-04-28 16:02 41.14607 1.15866 241 ft 0 kts 338°
2026-04-28 16:02 41.14611 1.15864 241 ft 0 kts 338°
2026-04-28 16:02 41.14618 1.15860 241 ft 2 kts 338°
2026-04-28 16:02 41.14639 1.15849 241 ft 4 kts 339°
2026-04-28 16:03 41.14667 1.15835 242 ft 1 kts 339°
2026-04-28 16:03 41.14682 1.15827 242 ft 0 kts 339°
2026-04-28 16:03 41.14691 1.15822 242 ft 3 kts 339°
2026-04-28 16:03 41.14704 1.15816 242 ft 3 kts 340°
2026-04-28 16:04 41.14726 1.15805 242 ft 2 kts 339°
2026-04-28 16:04 41.14735 1.15800 242 ft 0 kts 338°